[[{"header":{"parameterUnit":"m.s-1","parameterCategory":1,"la1":30.2991,"la2":30.254,"lo1":-89.0895,"lo2":-89.0444,"dy":0.0017,"dx":0.0017,"nx":28,"ny":28,"refTime":"2025-12-31T09:00:00:Z","depth":0,"parameterNumber":2,"parameterNumberName":"U-component_of_WINDS"},"data":[0,0,0,0,0,0,0,0,0,0,0,0,0,0,0,0,0,0,0,0,0,0,0,0,0,0,0,0,0,0,0,0,0,0,0,0,0,0,0,0,0,0,0,0,0,0,0,0,0,0,0,0,0,0,0,0,0,0,2.75,2.7502,0,2.769,2.7692,2.7694,2.7712,2.771,2.7708,2.7706,2.7902,2.7909,2.7916,0,0,0,0,0,0,0,0,0,0,0,0,0,2.7155,2.7161,2.75,2.7502,2.7505,2.7689,2.7692,2.7694,2.7712,2.771,2.7707,2.7705,2.79,2.7908,2.7917,0,0,0,0,0,0,0,0,0,0,0,0,0,2.7321,2.7163,2.75,2.7536,2.7541,2.7689,2.7692,2.7695,2.7713,2.771,2.7707,2.7704,2.7897,2.7907,2.7918,2.8043,0,0,2.795,2.7955,0,0,0,0,0,0,0,0,2.7311,2.7333,2.7528,2.7534,2.754,2.7674,2.7642,2.7812,2.7713,2.7648,2.7706,2.7702,2.7829,2.7845,2.7887,2.8052,2.8061,2.7951,2.7958,2.7962,2.7965,0,0,0,0,0,0,0,2.73,2.7325,2.7575,2.7531,2.7538,2.7543,2.7563,2.7674,2.7753,2.7653,2.7655,2.7677,2.7831,2.7877,2.7892,2.8064,2.7951,2.796,2.7967,2.7971,2.8341,2.8344,0,0,0,0,0,0,2.7281,2.7316,2.7569,2.7581,2.7416,2.7552,2.7574,2.7634,2.7751,2.7766,2.7679,2.7677,2.786,2.7879,2.7899,2.8052,2.7962,2.7972,2.7978,2.8337,2.8341,2.8345,0,0,0,0,0,0,2.7274,2.7304,2.7561,2.7449,2.7482,2.7561,2.7628,2.7639,2.7684,2.7771,2.7785,2.7711,2.7858,2.7884,2.8007,2.8059,2.7977,2.7987,2.8333,2.8339,2.8343,2.836,0,0,0,0,0,0,2.7264,2.7301,2.7349,2.745,2.7488,2.7666,2.7631,2.7645,2.7702,2.7701,2.7805,2.7819,2.7858,2.7991,2.8017,2.8072,2.7995,2.8329,2.8336,2.8342,2.8355,2.8365,2.8373,0,0,0,0,0,2.7252,2.7347,2.7351,2.7382,2.7549,2.7669,2.7691,2.7733,2.7707,2.7756,2.7811,2.7816,2.8049,2.8003,2.8033,2.8092,2.8326,2.8334,2.8341,2.8351,2.8363,2.8373,0,0,0,0,0,0,2.7251,2.7361,2.7367,2.7497,2.7573,2.7671,2.7734,2.7744,2.783,2.7825,2.7875,2.7898,2.8019,2.8069,2.8015,2.8219,2.8185,2.8199,2.8182,2.8194,2.8203,2.8188,2.8004,0,0,0,0,0,2.7266,2.7353,2.7444,2.7551,2.7589,2.7655,2.7708,2.7734,2.7815,2.7848,2.7913,2.7992,2.8083,2.8142,2.8231,2.8363,2.8385,2.8418,2.8428,2.8435,2.8446,2.8518,2.8533,2.8371,2.8371,2.837,0,0,2.7297,2.7368,2.742,2.7552,2.7614,2.7703,2.7682,2.7777,2.7844,2.7863,2.7982,2.8032,2.8124,2.8252,2.8311,2.8297,2.8496,2.8445,2.845,2.8457,2.8528,2.8543,2.8557,2.8376,2.8375,2.8374,0,0,2.74,2.7463,2.7558,2.762,2.7714,2.7758,2.778,2.7877,2.7911,2.8032,2.8047,2.8128,2.8284,2.8348,2.8401,2.8529,2.8536,2.8557,2.8604,2.8675,2.8687,2.8699,2.8743,2.8758,2.8568,2.8568,2.8568,0,2.7427,2.7562,2.7605,2.77,2.7757,2.7778,2.7874,2.7933,2.8052,2.8091,2.8073,2.8269,2.8332,2.8474,2.8505,2.8549,2.8576,2.8544,2.8682,2.8694,2.8705,2.8748,2.8764,2.857,2.857,2.857,2.8569,0,2.759,2.7683,2.7749,2.7861,2.7926,2.8022,2.808,2.8141,2.8162,2.8207,2.8329,2.8406,2.851,2.8547,2.8568,2.8692,2.868,2.8672,2.8638,2.8722,2.8762,2.8779,2.8572,2.8572,2.8571,2.8571,0,0,2.7696,2.7831,2.7854,2.7905,2.8011,2.8084,2.818,2.8281,2.8332,2.8414,2.8495,2.8627,2.8619,2.868,2.8709,2.8771,2.8865,2.8755,2.8758,2.8771,2.9005,2.9008,2.9026,2.8871,2.8875,2.8877,2.8996,0,2.7808,2.7979,2.8021,2.8167,2.8253,2.8275,2.8359,2.8433,2.8478,2.8559,2.861,2.8701,2.8686,2.8722,2.8784,2.884,2.8912,2.8833,2.8947,2.895,2.892,2.9048,2.9053,2.9161,2.9013,2.9015,2.9017,0,2.7962,2.8046,2.82,2.8294,2.8331,2.8406,2.8501,2.8578,2.8663,2.8692,2.8759,2.8782,2.8884,2.8846,2.8986,2.8931,2.8981,2.9015,2.9021,2.9031,2.8987,2.906,2.9197,2.9212,2.9043,2.9041,2.9039,0,2.8021,2.8173,2.8284,2.8327,2.844,2.8491,2.8541,2.8623,2.8681,2.8765,2.8803,2.8898,2.895,2.9024,2.9072,2.9041,2.9208,2.9175,2.9234,2.9233,2.9266,2.9263,2.9411,2.9302,2.9302,2.9301,2.9301,0,2.8141,2.8234,2.8311,2.838,2.8484,2.8533,2.8636,2.8686,2.8759,2.8837,2.8863,2.8936,2.8997,2.9079,2.9118,2.9227,2.9251,2.9277,2.9285,2.9273,2.9269,2.9304,2.9297,2.9306,2.9305,2.9304,2.9303,0,2.8223,2.8279,2.8401,2.8498,2.8525,2.8597,2.868,2.8748,2.8794,2.8894,2.892,2.8993,2.9091,2.9147,2.9271,2.9297,2.9417,2.9424,2.9388,2.9392,2.9446,2.9439,2.962,2.9645,2.9522,2.9523,2.9524,0,2.8294,2.8366,2.847,2.8524,2.8574,2.8662,2.8721,2.8772,2.8832,2.8934,2.8989,2.9088,2.917,2.9325,2.939,2.9484,2.9492,2.9549,2.9506,2.9491,2.949,2.9484,2.9491,2.9555,2.9556,2.9557,2.9558,0,2.8414,2.8439,2.8522,2.8616,2.8685,2.8762,2.8838,2.8881,2.8945,2.9012,2.9111,2.9175,2.93,2.9398,2.9498,2.955,2.9564,2.9571,2.9589,2.9576,2.9551,2.9563,2.9405,2.9566,2.9565,2.9564,2.9564,2.9564,2.8492,2.8556,2.8639,2.8732,2.8794,2.8865,2.8932,2.8987,2.9071,2.9176,2.9202,2.9307,2.939,2.9525,2.958,2.9662,2.9652,2.9679,2.9686,2.9691,2.9691,2.954,2.9681,2.9681,2.9681,2.9681,2.9681,0,2.8611,2.8666,2.8751,2.8855,2.8928,2.8936,2.9021,2.9081,2.9172,2.9248,2.9328,2.9442,2.9537,2.961,2.9707,2.9759,2.9768,2.9783,2.9778,2.979,2.9696,2.9669,2.9774,2.9774,2.9774,2.9774,2.9774,2.9774,2.8682,2.879,2.8824,2.8965,2.9019,2.9121,2.9168,2.9233,2.9294,2.942,2.9499,2.9546,2.9621,2.9724,2.9811,2.983,2.9864,2.9877,2.9896,2.9807,2.9797,2.9787,2.9762,2.9884,2.9885,2.9983,2.9984,2.9985]},{"header":{"parameterUnit":"m.s-1","parameterCategory":1,"la1":30.2991,"la2":30.254,"lo1":-89.0895,"lo2":-89.0444,"dy":0.0017,"dx":0.0017,"nx":28,"ny":28,"refTime":"2025-12-31T09:00:00:Z","depth":0,"parameterNumber":3,"parameterNumberName":"V-component_of_WINDS"},"data":[0,0,0,0,0,0,0,0,0,0,0,0,0,0,0,0,0,0,0,0,0,0,0,0,0,0,0,0,0,0,0,0,0,0,0,0,0,0,0,0,0,0,0,0,0,0,0,0,0,0,0,0,0,0,0,0,0,0,2.8796,2.8797,0,2.8887,2.8888,2.8889,2.8896,2.8895,2.8894,2.8893,2.898,2.8983,2.8986,0,0,0,0,0,0,0,0,0,0,0,0,0,2.8621,2.8624,2.8795,2.8797,2.8798,2.8886,2.8888,2.8889,2.8896,2.8895,2.8894,2.8892,2.8979,2.8983,2.8987,0,0,0,0,0,0,0,0,0,0,0,0,0,2.8703,2.8625,2.8795,2.8812,2.8815,2.8886,2.8888,2.8889,2.8896,2.8895,2.8893,2.8892,2.8978,2.8982,2.8987,2.9046,0,0,2.9002,2.9004,0,0,0,0,0,0,0,0,2.8698,2.8709,2.8809,2.8811,2.8814,2.8879,2.8858,2.8942,2.8897,2.8865,2.8893,2.8891,2.8947,2.8954,2.8974,2.905,2.9054,2.9002,2.9005,2.9007,2.9009,0,0,0,0,0,0,0,2.8693,2.8705,2.8831,2.881,2.8813,2.8813,2.8823,2.8874,2.8913,2.8868,2.8868,2.8879,2.8948,2.897,2.8976,2.9055,2.9002,2.9006,2.9009,2.9011,2.9183,2.9185,0,0,0,0,0,0,2.8685,2.8701,2.8828,2.8834,2.8752,2.8817,2.8829,2.8859,2.8912,2.8919,2.8881,2.8879,2.8962,2.8971,2.8979,2.9052,2.9007,2.9012,2.9015,2.9182,2.9184,2.9185,0,0,0,0,0,0,2.8681,2.8696,2.8825,2.8768,2.8784,2.8822,2.8856,2.8862,2.8883,2.8922,2.8929,2.8896,2.8961,2.8973,2.903,2.9055,2.9014,2.9018,2.918,2.9182,2.9184,2.9197,0,0,0,0,0,0,2.8676,2.8695,2.8719,2.8768,2.8787,2.8876,2.8858,2.8865,2.8892,2.8892,2.8938,2.8945,2.8961,2.9023,2.9035,2.9061,2.9022,2.9177,2.9181,2.9184,2.9195,2.92,2.9204,0,0,0,0,0,2.867,2.8718,2.872,2.8736,2.8819,2.8877,2.8888,2.8908,2.8894,2.8918,2.8943,2.8943,2.905,2.9028,2.9042,2.907,2.9176,2.918,2.9183,2.9193,2.9199,2.9204,0,0,0,0,0,0,2.8669,2.8725,2.8728,2.8794,2.8831,2.8878,2.8909,2.8914,2.8953,2.8951,2.8972,2.8982,2.9038,2.906,2.9034,2.913,2.9111,2.9118,2.9114,2.912,2.9125,2.9118,2.9026,0,0,0,0,0,2.8677,2.8721,2.8767,2.8821,2.8839,2.8871,2.8897,2.8909,2.8947,2.8963,2.8992,2.9027,2.9068,2.9095,2.9136,2.9198,2.9207,2.9224,2.9228,2.9232,2.9238,2.9271,2.9279,2.9198,2.9198,2.9198,0,0,2.8692,2.8729,2.8755,2.8821,2.8852,2.8895,2.8884,2.8931,2.8963,2.8969,2.9026,2.9048,2.9088,2.9148,2.9176,2.9168,2.9262,2.9237,2.924,2.9243,2.9276,2.9283,2.929,2.92,2.92,2.9199,0,0,2.8744,2.8777,2.8825,2.8856,2.8902,2.8923,2.8934,2.8981,2.8997,2.9054,2.9059,2.9096,2.9168,2.9196,2.922,2.9282,2.9283,2.9294,2.9319,2.9352,2.9358,2.9364,2.9385,2.9393,2.93,2.93,2.93,0,2.8757,2.8826,2.8848,2.8896,2.8924,2.8933,2.8981,2.9009,2.9065,2.9083,2.9074,2.9164,2.9192,2.9258,2.9273,2.9292,2.9305,2.9289,2.9356,2.9362,2.9367,2.9388,2.9396,2.9301,2.9301,2.9301,2.93,0,2.884,2.8887,2.892,2.8977,2.9009,2.9056,2.9083,2.9112,2.9121,2.9142,2.9199,2.9233,2.9281,2.9297,2.9306,2.9364,2.9358,2.9352,2.9334,2.9376,2.9395,2.9403,2.9302,2.9302,2.9302,2.9301,0,0,2.8894,2.8962,2.8974,2.9,2.9051,2.9087,2.9134,2.9182,2.9206,2.9244,2.9283,2.9343,2.9338,2.9365,2.9376,2.9405,2.9451,2.9395,2.9396,2.9404,2.9516,2.952,2.9529,2.9452,2.9453,2.9454,2.9513,0,2.8951,2.9037,2.9058,2.9131,2.9174,2.9183,2.9223,2.9258,2.9279,2.9316,2.9338,2.9381,2.9371,2.9387,2.9416,2.9439,2.9473,2.9435,2.9486,2.9488,2.9476,2.954,2.9544,2.9598,2.952,2.9522,2.9523,0,2.903,2.9072,2.9149,2.9195,2.9214,2.925,2.9296,2.9332,2.9371,2.9384,2.9414,2.9423,2.947,2.9449,2.9513,2.9487,2.9508,2.9523,2.9525,2.9531,2.9508,2.9546,2.9615,2.9623,2.9535,2.9534,2.9533,0,2.906,2.9136,2.9193,2.9214,2.9269,2.9294,2.9317,2.9355,2.9383,2.9421,2.9439,2.9482,2.9505,2.9537,2.9557,2.954,2.9618,2.96,2.9629,2.9628,2.9645,2.9643,2.9718,2.9659,2.9659,2.9659,2.9659,0,2.9122,2.9169,2.9207,2.9242,2.9294,2.9317,2.9367,2.939,2.9423,2.9461,2.947,2.9505,2.9528,2.9565,2.958,2.963,2.964,2.9651,2.9654,2.965,2.9649,2.9664,2.9661,2.9661,2.9661,2.966,2.966,0,2.9166,2.9193,2.9255,2.9302,2.9315,2.9352,2.9391,2.9423,2.9444,2.9492,2.9504,2.9536,2.958,2.9602,2.9657,2.9667,2.9723,2.9724,2.971,2.9712,2.9739,2.9736,2.9826,2.9839,2.9772,2.9773,2.9773,0,2.9203,2.924,2.9291,2.9318,2.9343,2.9386,2.9415,2.9438,2.9466,2.9513,2.954,2.9585,2.9622,2.9692,2.9719,2.976,2.9762,2.979,2.9768,2.9762,2.9762,2.9759,2.9762,2.9794,2.9795,2.9795,2.9796,0,2.9266,2.9278,2.932,2.9367,2.9402,2.9439,2.9476,2.9496,2.9525,2.9556,2.9603,2.9632,2.9688,2.9732,2.9776,2.9797,2.9801,2.9803,2.9812,2.9808,2.9798,2.9803,2.9721,2.9801,2.98,2.98,2.98,2.9799,2.9308,2.9341,2.9382,2.9429,2.9459,2.9493,2.9526,2.9552,2.9592,2.9641,2.9651,2.97,2.9736,2.9795,2.9818,2.9855,2.9849,2.9862,2.9865,2.9868,2.9869,2.9793,2.9863,2.9863,2.9863,2.9863,2.9863,0,2.9371,2.9399,2.9441,2.9493,2.9529,2.9532,2.9572,2.9601,2.9645,2.968,2.9717,2.9769,2.9812,2.9842,2.9885,2.9909,2.9911,2.9919,2.9917,2.9922,2.9872,2.986,2.9916,2.9916,2.9916,2.9916,2.9916,2.9916,2.9408,2.9464,2.9481,2.9551,2.9577,2.9627,2.965,2.9681,2.9709,2.9768,2.9805,2.9825,2.9857,2.9902,2.9941,2.9948,2.9963,2.9971,2.9978,2.9931,2.9926,2.992,2.9909,2.9974,2.9974,3.0025,3.0025,3.0026]}]]